{"data":{"norad_id":59328,"epoch":"2026-09-20T02:54:32.597568Z","epoch_age_seconds":194980,"freshness":"STALE","line1":"1 59328U 24057J   26263.12121062 -.00000241  00000+0  77605-6 0  9997","line2":"2 59328  43.0048 169.1355 0000943 281.0724  79.0021 15.27577837139574","mean_motion":15.27577837,"eccentricity":9.43e-5,"inclination_deg":43.0048,"raan_deg":169.1355,"arg_perigee_deg":281.0724,"mean_anomaly_deg":79.0021,"bstar":7.7605e-7,"rev_number":13957,"period_min":94.266882192269,"perigee_km":482.40856238781,"apogee_km":483.70258330705,"semimajor_km":6861.1925728474,"source":"CELESTRAK","updated_at":"2026-09-22T09:00:48.899338Z"}}